Year,Month,Day,Hour,Minute,Value (Times are PST for temperature in C)
2015,07,02,00,00,22.80
2015,07,02,00,01,22.70
2015,07,02,00,02,22.70
2015,07,02,00,03,22.70
2015,07,02,00,04,22.70
2015,07,02,00,05,22.70
2015,07,02,00,06,22.70
2015,07,02,00,07,22.70
2015,07,02,00,08,22.80
2015,07,02,00,09,22.80
2015,07,02,00,10,22.80
2015,07,02,00,11,22.80
2015,07,02,00,12,22.80
2015,07,02,00,13,22.80
2015,07,02,00,14,22.80
2015,07,02,00,15,22.80
2015,07,02,00,16,22.80
2015,07,02,00,17,22.80
2015,07,02,00,18,22.80
2015,07,02,00,19,22.80
2015,07,02,00,20,22.80
2015,07,02,00,21,22.80
2015,07,02,00,22,22.80
2015,07,02,00,23,22.80
2015,07,02,00,24,22.80
2015,07,02,00,25,22.80
2015,07,02,00,26,22.70
2015,07,02,00,27,22.70
2015,07,02,00,28,22.70
2015,07,02,00,29,22.70
2015,07,02,00,30,22.60
2015,07,02,00,31,22.60
2015,07,02,00,32,22.60
2015,07,02,00,33,22.60
2015,07,02,00,34,22.60
2015,07,02,00,35,22.50
2015,07,02,00,36,22.50
2015,07,02,00,37,22.60
2015,07,02,00,38,22.60
2015,07,02,00,39,22.60
2015,07,02,00,40,22.60
2015,07,02,00,41,22.70
2015,07,02,00,42,22.70
2015,07,02,00,43,22.80
2015,07,02,00,44,22.80
2015,07,02,00,45,22.80
2015,07,02,00,46,22.80
2015,07,02,00,47,22.80
2015,07,02,00,48,22.80
2015,07,02,00,49,22.80
2015,07,02,00,50,22.70
2015,07,02,00,51,22.70
2015,07,02,00,52,22.70
2015,07,02,00,53,22.70
2015,07,02,00,54,22.60
2015,07,02,00,55,22.60
2015,07,02,00,56,22.60
2015,07,02,00,57,22.50
2015,07,02,00,58,22.40
2015,07,02,00,59,22.40
2015,07,02,01,00,22.30
2015,07,02,01,01,22.20
2015,07,02,01,02,22.10
2015,07,02,01,03,22.10
2015,07,02,01,04,22.00
2015,07,02,01,05,21.90
2015,07,02,01,06,21.80
2015,07,02,01,07,21.70
2015,07,02,01,08,21.60
2015,07,02,01,09,21.50
2015,07,02,01,10,21.50
2015,07,02,01,11,21.40
2015,07,02,01,12,21.30
2015,07,02,01,13,21.20
2015,07,02,01,14,21.10
2015,07,02,01,15,21.00
2015,07,02,01,16,20.90
2015,07,02,01,17,20.80
2015,07,02,01,18,20.70
2015,07,02,01,19,20.70
2015,07,02,01,20,20.60
2015,07,02,01,21,20.60
2015,07,02,01,22,20.60
2015,07,02,01,23,20.50
2015,07,02,01,24,20.50
2015,07,02,01,25,20.50
2015,07,02,01,26,20.40
2015,07,02,01,27,20.40
2015,07,02,01,28,20.50
2015,07,02,01,29,20.50
2015,07,02,01,30,20.50
2015,07,02,01,31,20.60
2015,07,02,01,32,20.60
2015,07,02,01,33,20.60
2015,07,02,01,34,20.60
2015,07,02,01,35,20.60
2015,07,02,01,36,20.60
2015,07,02,01,37,20.60
2015,07,02,01,38,20.60
2015,07,02,01,39,20.60
2015,07,02,01,40,20.60
2015,07,02,01,41,20.60
2015,07,02,01,42,20.60
2015,07,02,01,43,20.60
2015,07,02,01,44,20.60
2015,07,02,01,45,20.60
2015,07,02,01,46,20.60
2015,07,02,01,47,20.50
2015,07,02,01,48,20.50
2015,07,02,01,49,20.50
2015,07,02,01,50,20.50
2015,07,02,01,51,20.40
2015,07,02,01,52,20.40
2015,07,02,01,53,20.40
2015,07,02,01,54,20.40
2015,07,02,01,55,20.40
2015,07,02,01,56,20.40
2015,07,02,01,57,20.40
2015,07,02,01,58,20.40
2015,07,02,01,59,20.40
2015,07,02,02,00,20.40
2015,07,02,02,01,20.40
2015,07,02,02,02,20.40
2015,07,02,02,03,20.40
2015,07,02,02,04,20.40
2015,07,02,02,05,20.50
2015,07,02,02,06,20.50
2015,07,02,02,07,20.60
2015,07,02,02,08,20.60
2015,07,02,02,09,20.70
2015,07,02,02,10,20.70
2015,07,02,02,11,20.70
2015,07,02,02,12,20.80
2015,07,02,02,13,20.80
2015,07,02,02,14,20.80
2015,07,02,02,15,20.80
2015,07,02,02,16,20.90
2015,07,02,02,17,20.90
2015,07,02,02,18,20.90
2015,07,02,02,19,21.00
2015,07,02,02,20,21.00
2015,07,02,02,21,21.10
2015,07,02,02,22,21.10
2015,07,02,02,23,21.10
2015,07,02,02,24,21.10
2015,07,02,02,25,21.10
2015,07,02,02,26,21.20
2015,07,02,02,27,21.20
2015,07,02,02,28,21.20
2015,07,02,02,29,21.30
2015,07,02,02,30,21.30
2015,07,02,02,31,21.30
2015,07,02,02,32,21.30
2015,07,02,02,33,21.30
2015,07,02,02,34,21.30
2015,07,02,02,35,21.30
2015,07,02,02,36,21.30
2015,07,02,02,37,21.30
2015,07,02,02,38,21.30
2015,07,02,02,39,21.30
2015,07,02,02,40,21.30
2015,07,02,02,41,21.30
2015,07,02,02,42,21.30
2015,07,02,02,43,21.30
2015,07,02,02,44,21.30
2015,07,02,02,45,21.30
2015,07,02,02,46,21.30
2015,07,02,02,47,21.40
2015,07,02,02,48,21.40
2015,07,02,02,49,21.40
2015,07,02,02,50,21.40
2015,07,02,02,51,21.40
2015,07,02,02,52,21.40
2015,07,02,02,53,21.40
2015,07,02,02,54,21.40
2015,07,02,02,55,21.40
2015,07,02,02,56,21.40
2015,07,02,02,57,21.30
2015,07,02,02,58,21.30
2015,07,02,02,59,21.30
2015,07,02,03,00,21.30
2015,07,02,03,01,21.30
2015,07,02,03,02,21.30
2015,07,02,03,03,21.30
2015,07,02,03,06,21.30
2015,07,02,03,07,21.30
2015,07,02,03,08,21.30
2015,07,02,03,09,21.30
2015,07,02,03,10,21.30
2015,07,02,03,11,21.20
2015,07,02,03,12,21.20
2015,07,02,03,13,21.20
2015,07,02,03,14,21.20
2015,07,02,03,15,21.20
2015,07,02,03,16,21.20
2015,07,02,03,17,21.30
2015,07,02,03,18,21.30
2015,07,02,03,19,21.30
2015,07,02,03,20,21.30
2015,07,02,03,21,21.30
2015,07,02,03,22,21.30
2015,07,02,03,23,21.30
2015,07,02,03,24,21.30
2015,07,02,03,25,21.30
2015,07,02,03,26,21.30
2015,07,02,03,27,21.20
2015,07,02,03,28,21.20
2015,07,02,03,29,21.20
2015,07,02,03,30,21.20
2015,07,02,03,31,21.20
2015,07,02,03,32,21.10
2015,07,02,03,33,21.10
2015,07,02,03,34,21.10
2015,07,02,03,35,21.10
2015,07,02,03,36,21.10
2015,07,02,03,37,21.10
2015,07,02,03,38,21.10
2015,07,02,03,39,21.10
2015,07,02,03,40,21.10
2015,07,02,03,41,21.10
2015,07,02,03,42,21.00
2015,07,02,03,43,21.10
2015,07,02,03,44,21.10
2015,07,02,03,45,21.00
2015,07,02,03,46,21.00
2015,07,02,03,47,21.00
2015,07,02,03,48,21.00
2015,07,02,03,49,21.00
2015,07,02,03,50,21.00
2015,07,02,03,51,21.00
2015,07,02,03,52,21.00
2015,07,02,03,53,21.00
2015,07,02,03,54,21.10
2015,07,02,03,55,21.10
2015,07,02,03,56,21.10
2015,07,02,03,57,21.10
2015,07,02,03,58,21.10
2015,07,02,03,59,21.10
2015,07,02,04,00,21.10
2015,07,02,04,01,21.10
2015,07,02,04,02,21.10
2015,07,02,04,03,21.10
2015,07,02,04,04,21.10
2015,07,02,04,05,21.20
2015,07,02,04,06,21.20
2015,07,02,04,07,21.20
2015,07,02,04,08,21.20
2015,07,02,04,09,21.20
2015,07,02,04,10,21.20
2015,07,02,04,11,21.20
2015,07,02,04,12,21.30
2015,07,02,04,13,21.30
2015,07,02,04,14,21.30
2015,07,02,04,15,21.30
2015,07,02,04,16,21.30
2015,07,02,04,17,21.40
2015,07,02,04,18,21.40
2015,07,02,04,19,21.40
2015,07,02,04,20,21.40
2015,07,02,04,21,21.40
2015,07,02,04,22,21.40
2015,07,02,04,23,21.50
2015,07,02,04,24,21.50
2015,07,02,04,25,21.50
2015,07,02,04,26,21.50
2015,07,02,04,27,21.50
2015,07,02,04,28,21.50
2015,07,02,04,29,21.60
2015,07,02,04,30,21.60
2015,07,02,04,31,21.60
2015,07,02,04,32,21.60
2015,07,02,04,33,21.60
2015,07,02,04,34,21.50
2015,07,02,04,35,21.50
2015,07,02,04,36,21.50
2015,07,02,04,37,21.50
2015,07,02,04,38,21.40
2015,07,02,04,39,21.40
2015,07,02,04,40,21.40
2015,07,02,04,41,21.40
2015,07,02,04,42,21.40
2015,07,02,04,43,21.40
2015,07,02,04,44,21.40
2015,07,02,04,45,21.40
2015,07,02,04,46,21.40
2015,07,02,04,47,21.40
2015,07,02,04,48,21.40
2015,07,02,04,49,21.40
2015,07,02,04,50,21.40
2015,07,02,04,51,21.40
2015,07,02,04,52,21.40
2015,07,02,04,53,21.40
2015,07,02,04,54,21.40
2015,07,02,04,55,21.40
2015,07,02,04,56,21.40
2015,07,02,04,57,21.40
2015,07,02,04,58,21.40
2015,07,02,04,59,21.30
2015,07,02,05,00,21.30
2015,07,02,05,01,21.30
2015,07,02,05,02,21.30
2015,07,02,05,03,21.30
2015,07,02,05,04,21.30
2015,07,02,05,05,21.30
2015,07,02,05,06,21.30
2015,07,02,05,07,21.30
2015,07,02,05,08,21.30
2015,07,02,05,09,21.30
2015,07,02,05,10,21.30
2015,07,02,05,11,21.30
2015,07,02,05,12,21.30
2015,07,02,05,13,21.20
2015,07,02,05,14,21.20
2015,07,02,05,15,21.20
2015,07,02,05,16,21.30
2015,07,02,05,17,21.20
2015,07,02,05,18,21.20
2015,07,02,05,19,21.20
2015,07,02,05,20,21.30
2015,07,02,05,21,21.30
2015,07,02,05,22,21.30
2015,07,02,05,23,21.30
2015,07,02,05,24,21.30
2015,07,02,05,25,21.30
2015,07,02,05,26,21.30
2015,07,02,05,27,21.30
2015,07,02,05,28,21.30
2015,07,02,05,29,21.30
2015,07,02,05,30,21.40
2015,07,02,05,31,21.40
2015,07,02,05,32,21.40
2015,07,02,05,33,21.50
2015,07,02,05,34,21.50
2015,07,02,05,35,21.50
2015,07,02,05,36,21.60
2015,07,02,05,37,21.60
2015,07,02,05,38,21.60
2015,07,02,05,39,21.60
2015,07,02,05,40,21.60
2015,07,02,05,41,21.60
2015,07,02,05,42,21.60
2015,07,02,05,43,21.50
2015,07,02,05,44,21.60
2015,07,02,05,45,21.50
2015,07,02,05,46,21.60
2015,07,02,05,47,21.60
2015,07,02,05,48,21.60
2015,07,02,05,49,21.60
2015,07,02,05,50,21.60
2015,07,02,05,51,21.60
2015,07,02,05,52,21.50
2015,07,02,05,53,21.50
2015,07,02,05,54,21.50
2015,07,02,05,55,21.50
2015,07,02,05,56,21.60
2015,07,02,05,57,21.60
2015,07,02,05,58,21.60
2015,07,02,05,59,21.60
2015,07,02,06,00,21.60
2015,07,02,06,01,21.60
2015,07,02,06,02,21.60
2015,07,02,06,03,21.60
2015,07,02,06,04,21.60
2015,07,02,06,05,21.60
2015,07,02,06,06,21.60
2015,07,02,06,07,21.50
2015,07,02,06,08,21.50
2015,07,02,06,09,21.50
2015,07,02,06,10,21.50
2015,07,02,06,11,21.40
2015,07,02,06,12,21.40
2015,07,02,06,13,21.40
2015,07,02,06,14,21.40
2015,07,02,06,15,21.40
2015,07,02,06,16,21.40
2015,07,02,06,17,21.30
2015,07,02,06,18,21.30
2015,07,02,06,19,21.30
2015,07,02,06,20,21.30
2015,07,02,06,21,21.20
2015,07,02,06,22,21.20
2015,07,02,06,23,21.20
2015,07,02,06,24,21.10
2015,07,02,06,25,21.10
2015,07,02,06,26,21.10
2015,07,02,06,27,21.10
2015,07,02,06,28,21.00
2015,07,02,06,29,21.00
2015,07,02,06,30,20.90
2015,07,02,06,31,20.90
2015,07,02,06,32,20.90
2015,07,02,06,33,20.90
2015,07,02,06,34,20.80
2015,07,02,06,35,20.80
2015,07,02,06,36,20.80
2015,07,02,06,37,20.80
2015,07,02,06,38,20.70
2015,07,02,06,39,20.70
2015,07,02,06,40,20.70
2015,07,02,06,41,20.70
2015,07,02,06,42,20.70
2015,07,02,06,43,20.60
2015,07,02,06,44,20.60
2015,07,02,06,45,20.60
2015,07,02,06,46,20.60
2015,07,02,06,47,20.60
2015,07,02,06,48,20.60
2015,07,02,06,49,20.60
2015,07,02,06,50,20.60
2015,07,02,06,51,20.60
2015,07,02,06,52,20.60
2015,07,02,06,53,20.60
2015,07,02,06,54,20.60
2015,07,02,06,55,20.70
2015,07,02,06,56,20.70
2015,07,02,06,57,20.70
2015,07,02,06,58,20.70
2015,07,02,06,59,20.70
2015,07,02,07,00,20.80
2015,07,02,07,01,20.80
2015,07,02,07,02,20.80
2015,07,02,07,03,20.80
2015,07,02,07,04,20.80
2015,07,02,07,05,20.80
2015,07,02,07,06,20.80
2015,07,02,07,07,20.80
2015,07,02,07,08,20.80
2015,07,02,07,09,20.80
2015,07,02,07,10,20.80
2015,07,02,07,11,20.80
2015,07,02,07,12,20.80
2015,07,02,07,13,20.80
2015,07,02,07,14,20.80
2015,07,02,07,15,20.80
2015,07,02,07,16,20.80
2015,07,02,07,17,20.80
2015,07,02,07,18,20.80
2015,07,02,07,19,20.80
2015,07,02,07,20,20.80
2015,07,02,07,21,20.70
2015,07,02,07,22,20.70
2015,07,02,07,23,20.60
2015,07,02,07,24,20.60
2015,07,02,07,25,20.60
2015,07,02,07,26,20.50
2015,07,02,07,27,20.50
2015,07,02,07,28,20.40
2015,07,02,07,29,20.40
2015,07,02,07,30,20.40
2015,07,02,07,31,20.30
2015,07,02,07,32,20.30
2015,07,02,07,33,20.30
2015,07,02,07,34,20.20
2015,07,02,07,35,20.20
2015,07,02,07,36,20.20
2015,07,02,07,37,20.20
2015,07,02,07,38,20.20
2015,07,02,07,39,20.20
2015,07,02,07,40,20.20
2015,07,02,07,41,20.10
2015,07,02,07,42,20.10
2015,07,02,07,43,20.10
2015,07,02,07,44,20.10
2015,07,02,07,45,20.10
2015,07,02,07,46,20.10
2015,07,02,07,47,20.00
2015,07,02,07,48,20.00
2015,07,02,07,49,20.00
2015,07,02,07,50,20.00
2015,07,02,07,51,19.90
2015,07,02,07,52,20.00
2015,07,02,07,53,19.90
2015,07,02,07,54,20.00
2015,07,02,07,55,20.00
2015,07,02,07,56,20.00
2015,07,02,07,57,20.00
2015,07,02,07,58,20.00
2015,07,02,07,59,20.00
2015,07,02,08,00,20.00
2015,07,02,08,01,20.00
2015,07,02,08,02,20.00
2015,07,02,08,03,20.00
2015,07,02,08,04,20.00
2015,07,02,08,05,20.00
2015,07,02,08,06,20.10
2015,07,02,08,07,20.10
2015,07,02,08,08,20.10
2015,07,02,08,09,20.10
2015,07,02,08,10,20.20
2015,07,02,08,11,20.20
2015,07,02,08,12,20.20
2015,07,02,08,13,20.20
2015,07,02,08,14,20.30
2015,07,02,08,15,20.30
2015,07,02,08,16,20.30
2015,07,02,08,17,20.30
2015,07,02,08,18,20.40
2015,07,02,08,19,20.40
2015,07,02,08,20,20.40
2015,07,02,08,21,20.40
2015,07,02,08,22,20.40
2015,07,02,08,23,20.40
2015,07,02,08,24,20.40
2015,07,02,08,25,20.40
2015,07,02,08,26,20.40
2015,07,02,08,27,20.40
2015,07,02,08,28,20.40
2015,07,02,08,29,20.50
2015,07,02,08,30,20.50
2015,07,02,08,31,20.50
2015,07,02,08,32,20.60
2015,07,02,08,33,20.60
2015,07,02,08,34,20.60
2015,07,02,08,35,20.70
2015,07,02,08,36,20.70
2015,07,02,08,37,20.70
2015,07,02,08,38,20.70
2015,07,02,08,39,20.70
2015,07,02,08,40,20.70
2015,07,02,08,41,20.70
2015,07,02,08,42,20.70
2015,07,02,08,43,20.70
2015,07,02,08,44,20.70
2015,07,02,08,45,20.60
2015,07,02,08,46,20.60
2015,07,02,08,47,20.60
2015,07,02,08,48,20.70
2015,07,02,08,49,20.70
2015,07,02,08,50,20.70
2015,07,02,08,51,20.70
2015,07,02,08,52,20.70
2015,07,02,08,53,20.80
2015,07,02,08,54,20.80
2015,07,02,08,55,20.80
2015,07,02,08,56,20.90
2015,07,02,08,57,20.90
2015,07,02,08,58,21.00
2015,07,02,08,59,21.00
2015,07,02,09,00,21.10
2015,07,02,09,01,21.10
2015,07,02,09,02,21.10
2015,07,02,09,03,21.20
2015,07,02,09,04,21.20
2015,07,02,09,05,21.20
2015,07,02,09,06,21.30
2015,07,02,09,07,21.30
2015,07,02,09,08,21.30
2015,07,02,09,09,21.30
2015,07,02,09,10,21.30
2015,07,02,09,11,21.30
2015,07,02,09,12,21.30
2015,07,02,09,13,21.40
2015,07,02,09,14,21.40
2015,07,02,09,15,21.40
2015,07,02,09,16,21.40
2015,07,02,09,17,21.40
2015,07,02,09,18,21.40
2015,07,02,09,19,21.40
2015,07,02,09,20,21.40
2015,07,02,09,21,21.40
2015,07,02,09,22,21.40
2015,07,02,09,23,21.50
2015,07,02,09,24,21.50
2015,07,02,09,25,21.50
2015,07,02,09,26,21.50
2015,07,02,09,27,21.60
2015,07,02,09,28,21.60
2015,07,02,09,29,21.60
2015,07,02,09,30,21.60
2015,07,02,09,31,21.60
2015,07,02,09,32,21.70
2015,07,02,09,33,21.70
2015,07,02,09,34,21.70
2015,07,02,09,35,21.70
2015,07,02,09,36,21.70
2015,07,02,09,37,21.70
2015,07,02,09,38,21.70
2015,07,02,09,39,21.70
2015,07,02,09,40,21.70
2015,07,02,09,41,21.70
2015,07,02,09,42,21.60
2015,07,02,09,43,21.70
2015,07,02,09,44,21.70
2015,07,02,09,45,21.70
2015,07,02,09,46,21.70
2015,07,02,09,47,21.70
2015,07,02,09,48,21.70
2015,07,02,09,49,21.80
2015,07,02,09,50,21.80
2015,07,02,09,51,21.80
2015,07,02,09,52,21.80
2015,07,02,09,53,21.80
2015,07,02,09,54,21.80
2015,07,02,09,55,21.80
2015,07,02,09,56,21.80
2015,07,02,09,57,21.80
2015,07,02,09,58,21.90
2015,07,02,09,59,22.00
2015,07,02,10,00,22.10
2015,07,02,10,01,22.10
2015,07,02,10,02,22.20
2015,07,02,10,03,22.30
2015,07,02,10,04,22.30
2015,07,02,10,05,22.40
2015,07,02,10,06,22.50
2015,07,02,10,07,22.60
2015,07,02,10,08,22.70
2015,07,02,10,09,22.70
2015,07,02,10,10,22.80
2015,07,02,10,11,22.80
2015,07,02,10,12,22.80
2015,07,02,10,13,22.80
2015,07,02,10,14,22.80
2015,07,02,10,15,22.80
2015,07,02,10,16,22.80
2015,07,02,10,17,22.80
2015,07,02,10,18,22.80
2015,07,02,10,19,22.90
2015,07,02,10,20,22.90
2015,07,02,10,21,22.90
2015,07,02,10,22,22.80
2015,07,02,10,23,22.80
2015,07,02,10,24,22.80
2015,07,02,10,25,22.70
2015,07,02,10,26,22.70
2015,07,02,10,27,22.80
2015,07,02,10,28,22.80
2015,07,02,10,29,22.80
2015,07,02,10,30,22.80
2015,07,02,10,31,22.90
2015,07,02,10,32,23.00
2015,07,02,10,33,23.10
2015,07,02,10,34,23.20
2015,07,02,10,35,23.20
2015,07,02,10,36,23.20
2015,07,02,10,37,23.20
2015,07,02,10,38,23.20
2015,07,02,10,39,23.30
2015,07,02,10,40,23.30
2015,07,02,10,41,23.40
2015,07,02,10,42,23.40
2015,07,02,10,43,23.50
2015,07,02,10,44,23.50
2015,07,02,10,45,23.50
2015,07,02,10,46,23.50
2015,07,02,10,47,23.60
2015,07,02,10,48,23.60
2015,07,02,10,49,23.60
2015,07,02,10,50,23.60
2015,07,02,10,51,23.60
2015,07,02,10,52,23.50
2015,07,02,10,53,23.50
2015,07,02,10,54,23.40
2015,07,02,10,55,23.40
2015,07,02,10,56,23.40
2015,07,02,10,57,23.40
2015,07,02,10,58,23.30
2015,07,02,10,59,23.30
2015,07,02,11,00,23.30
2015,07,02,11,01,23.30
2015,07,02,11,02,23.30
2015,07,02,11,03,23.40
2015,07,02,11,04,23.40
2015,07,02,11,05,23.40
2015,07,02,11,06,23.50
2015,07,02,11,07,23.50
2015,07,02,11,08,23.50
2015,07,02,11,09,23.60
2015,07,02,11,10,23.60
2015,07,02,11,11,23.60
2015,07,02,11,12,23.70
2015,07,02,11,13,23.80
2015,07,02,11,14,23.80
2015,07,02,11,15,23.80
2015,07,02,11,16,23.90
2015,07,02,11,17,24.10
2015,07,02,11,18,24.10
2015,07,02,11,19,24.30
2015,07,02,11,20,24.30
2015,07,02,11,21,24.40
2015,07,02,11,22,24.50
2015,07,02,11,23,24.60
2015,07,02,11,24,24.60
2015,07,02,11,25,24.60
2015,07,02,11,26,24.60
2015,07,02,11,27,24.60
2015,07,02,11,28,24.60
2015,07,02,11,29,24.70
2015,07,02,11,30,24.70
2015,07,02,11,31,24.70
2015,07,02,11,32,24.70
2015,07,02,11,33,24.70
2015,07,02,11,34,24.80
2015,07,02,11,35,24.80
2015,07,02,11,36,24.90
2015,07,02,11,37,25.00
2015,07,02,11,38,25.10
2015,07,02,11,39,25.10
2015,07,02,11,40,25.20
2015,07,02,11,41,25.30
2015,07,02,11,42,25.40
2015,07,02,11,43,25.50
2015,07,02,11,44,25.50
2015,07,02,11,45,25.60
2015,07,02,11,46,25.60
2015,07,02,11,47,25.60
2015,07,02,11,48,25.50
2015,07,02,11,49,25.50
2015,07,02,11,50,25.50
2015,07,02,11,51,25.40
2015,07,02,11,52,25.40
2015,07,02,11,53,25.50
2015,07,02,11,54,25.50
2015,07,02,11,55,25.60
2015,07,02,11,56,25.70
2015,07,02,11,57,25.70
2015,07,02,11,58,25.70
2015,07,02,11,59,25.80
2015,07,02,12,00,25.90
2015,07,02,12,01,25.90
2015,07,02,12,02,25.90
2015,07,02,12,03,25.80
2015,07,02,12,04,25.80
2015,07,02,12,05,25.70
2015,07,02,12,06,25.70
2015,07,02,12,07,25.70
2015,07,02,12,08,25.70
2015,07,02,12,09,25.80
2015,07,02,12,10,25.80
2015,07,02,12,11,25.90
2015,07,02,12,12,26.00
2015,07,02,12,13,26.00
2015,07,02,12,14,26.00
2015,07,02,12,15,26.00
2015,07,02,12,16,26.00
2015,07,02,12,17,26.10
2015,07,02,12,18,26.10
2015,07,02,12,19,26.10
2015,07,02,12,20,26.10
2015,07,02,12,21,26.10
2015,07,02,12,22,26.10
2015,07,02,12,23,26.10
2015,07,02,12,24,26.20
2015,07,02,12,25,26.20
2015,07,02,12,26,26.20
2015,07,02,12,27,26.20
2015,07,02,12,28,26.20
2015,07,02,12,29,26.20
2015,07,02,12,30,26.10
2015,07,02,12,31,26.10
2015,07,02,12,32,26.00
2015,07,02,12,33,25.90
2015,07,02,12,34,25.90
2015,07,02,12,35,25.90
2015,07,02,12,36,25.90
2015,07,02,12,37,25.90
2015,07,02,12,38,25.90
2015,07,02,12,39,26.00
2015,07,02,12,40,26.00
2015,07,02,12,41,25.90
2015,07,02,12,42,25.90
2015,07,02,12,43,25.90
2015,07,02,12,44,25.90
2015,07,02,12,45,26.00
2015,07,02,12,46,26.00
2015,07,02,12,47,26.10
2015,07,02,12,48,26.10
2015,07,02,12,49,26.10
2015,07,02,12,50,26.10
2015,07,02,12,51,26.10
2015,07,02,12,52,26.10
2015,07,02,12,53,26.10
2015,07,02,12,54,26.10
2015,07,02,12,55,26.20
2015,07,02,12,56,26.10
2015,07,02,12,57,26.10
2015,07,02,12,58,26.10
2015,07,02,12,59,26.10
2015,07,02,13,00,26.10
2015,07,02,13,01,26.20
2015,07,02,13,02,26.20
2015,07,02,13,03,26.20
2015,07,02,13,04,26.20
2015,07,02,13,05,26.20
2015,07,02,13,06,26.10
2015,07,02,13,07,26.10
2015,07,02,13,08,26.20
2015,07,02,13,09,26.30
2015,07,02,13,10,26.30
2015,07,02,13,11,26.50
2015,07,02,13,12,26.60
2015,07,02,13,13,26.70
2015,07,02,13,14,26.90
2015,07,02,13,15,27.00
2015,07,02,13,16,27.00
2015,07,02,13,17,27.10
2015,07,02,13,18,27.20
2015,07,02,13,19,27.30
2015,07,02,13,20,27.30
2015,07,02,13,21,27.30
2015,07,02,13,22,27.30
2015,07,02,13,23,27.30
2015,07,02,13,24,27.30
2015,07,02,13,25,27.40
2015,07,02,13,26,27.50
2015,07,02,13,27,27.60
2015,07,02,13,28,27.70
2015,07,02,13,29,27.70
2015,07,02,13,30,27.60
2015,07,02,13,31,27.60
2015,07,02,13,32,27.50
2015,07,02,13,33,27.40
2015,07,02,13,34,27.40
2015,07,02,13,35,27.40
2015,07,02,13,36,27.40
2015,07,02,13,37,27.40
2015,07,02,13,38,27.40
2015,07,02,13,39,27.40
2015,07,02,13,40,27.40
2015,07,02,13,41,27.40
2015,07,02,13,42,27.50
2015,07,02,13,43,27.60
2015,07,02,13,44,27.60
2015,07,02,13,45,27.70
2015,07,02,13,46,27.70
2015,07,02,13,47,27.60
2015,07,02,13,48,27.50
2015,07,02,13,49,27.40
2015,07,02,13,50,27.40
2015,07,02,13,51,27.40
2015,07,02,13,52,27.40
2015,07,02,13,53,27.50
2015,07,02,13,54,27.60
2015,07,02,13,55,27.70
2015,07,02,13,56,27.80
2015,07,02,13,57,27.80
2015,07,02,13,58,27.90
2015,07,02,13,59,27.90
2015,07,02,14,00,27.90
2015,07,02,14,01,28.00
2015,07,02,14,02,28.10
2015,07,02,14,03,28.20
2015,07,02,14,04,28.20
2015,07,02,14,05,28.10
2015,07,02,14,06,28.10
2015,07,02,14,07,28.10
2015,07,02,14,08,28.20
2015,07,02,14,09,28.20
2015,07,02,14,10,28.30
2015,07,02,14,11,28.50
2015,07,02,14,12,28.60
2015,07,02,14,13,28.80
2015,07,02,14,14,28.90
2015,07,02,14,15,29.00
2015,07,02,14,16,29.10
2015,07,02,14,17,29.10
2015,07,02,14,18,29.10
2015,07,02,14,19,29.20
2015,07,02,14,20,29.20
2015,07,02,14,21,29.20
2015,07,02,14,22,29.10
2015,07,02,14,23,29.10
2015,07,02,14,24,29.10
2015,07,02,14,25,29.10
2015,07,02,14,26,29.20
2015,07,02,14,27,29.10
2015,07,02,14,28,29.00
2015,07,02,14,29,29.00
2015,07,02,14,30,28.90
2015,07,02,14,31,28.90
2015,07,02,14,32,29.00
2015,07,02,14,33,29.10
2015,07,02,14,34,29.10
2015,07,02,14,35,29.10
2015,07,02,14,36,29.10
2015,07,02,14,37,29.10
2015,07,02,14,38,29.00
2015,07,02,14,39,29.10
2015,07,02,14,40,29.10
2015,07,02,14,41,29.00
2015,07,02,14,42,28.90
2015,07,02,14,43,28.80
2015,07,02,14,44,28.70
2015,07,02,14,45,28.60
2015,07,02,14,46,28.60
2015,07,02,14,47,28.70
2015,07,02,14,48,28.70
2015,07,02,14,49,28.70
2015,07,02,14,50,28.60
2015,07,02,14,51,28.60
2015,07,02,14,52,28.70
2015,07,02,14,53,28.70
2015,07,02,14,54,28.80
2015,07,02,14,55,28.90
2015,07,02,14,56,29.00
2015,07,02,14,57,29.00
2015,07,02,14,58,29.10
2015,07,02,14,59,29.10
2015,07,02,15,00,29.20
2015,07,02,15,01,29.20
2015,07,02,15,02,29.20
2015,07,02,15,03,29.10
2015,07,02,15,04,29.10
2015,07,02,15,05,29.10
2015,07,02,15,06,29.00
2015,07,02,15,07,29.10
2015,07,02,15,08,29.10
2015,07,02,15,09,29.10
2015,07,02,15,10,29.20
2015,07,02,15,11,29.20
2015,07,02,15,12,29.30
2015,07,02,15,13,29.30
2015,07,02,15,14,29.40
2015,07,02,15,15,29.40
2015,07,02,15,16,29.40
2015,07,02,15,17,29.50
2015,07,02,15,18,29.50
2015,07,02,15,19,29.60
2015,07,02,15,20,29.70
2015,07,02,15,21,29.70
2015,07,02,15,22,29.80
2015,07,02,15,23,29.90
2015,07,02,15,24,30.00
2015,07,02,15,25,30.10
2015,07,02,15,26,30.20
2015,07,02,15,27,30.30
2015,07,02,15,28,30.40
2015,07,02,15,29,30.50
2015,07,02,15,30,30.70
2015,07,02,15,31,30.80
2015,07,02,15,32,30.90
2015,07,02,15,33,31.00
2015,07,02,15,34,31.00
2015,07,02,15,35,31.00
2015,07,02,15,36,31.00
2015,07,02,15,37,31.10
2015,07,02,15,38,31.20
2015,07,02,15,39,31.20
2015,07,02,15,40,31.30
2015,07,02,15,41,31.30
2015,07,02,15,42,31.30
2015,07,02,15,43,31.30
2015,07,02,15,44,31.30
2015,07,02,15,45,31.20
2015,07,02,15,46,31.10
2015,07,02,15,47,31.10
2015,07,02,15,48,31.10
2015,07,02,15,49,31.10
2015,07,02,15,50,31.10
2015,07,02,15,51,31.20
2015,07,02,15,52,31.20
2015,07,02,15,53,31.30
2015,07,02,15,54,31.30
2015,07,02,15,55,31.40
2015,07,02,15,56,31.50
2015,07,02,15,57,31.50
2015,07,02,15,58,31.40
2015,07,02,15,59,31.40
2015,07,02,16,00,31.40
2015,07,02,16,01,31.40
2015,07,02,16,02,31.50
2015,07,02,16,03,31.50
2015,07,02,16,04,31.60
2015,07,02,16,05,31.60
2015,07,02,16,06,31.60
2015,07,02,16,07,31.60
2015,07,02,16,08,31.60
2015,07,02,16,09,31.60
2015,07,02,16,10,31.60
2015,07,02,16,11,31.60
2015,07,02,16,12,31.60
2015,07,02,16,13,31.50
2015,07,02,16,14,31.40
2015,07,02,16,15,31.40
2015,07,02,16,16,31.30
2015,07,02,16,17,31.30
2015,07,02,16,18,31.30
2015,07,02,16,19,31.30
2015,07,02,16,20,31.30
2015,07,02,16,21,31.30
2015,07,02,16,22,31.30
2015,07,02,16,23,31.30
2015,07,02,16,24,31.20
2015,07,02,16,25,31.20
2015,07,02,16,26,31.30
2015,07,02,16,27,31.30
2015,07,02,16,28,31.30
2015,07,02,16,29,31.40
2015,07,02,16,30,31.50
2015,07,02,16,31,31.50
2015,07,02,16,32,31.40
2015,07,02,16,33,31.30
2015,07,02,16,34,31.20
2015,07,02,16,35,31.10
2015,07,02,16,36,31.00
2015,07,02,16,37,31.00
2015,07,02,16,38,31.00
2015,07,02,16,39,31.00
2015,07,02,16,40,31.10
2015,07,02,16,41,31.10
2015,07,02,16,42,31.20
2015,07,02,16,43,31.20
2015,07,02,16,44,31.30
2015,07,02,16,45,31.30
2015,07,02,16,46,31.30
2015,07,02,16,47,31.30
2015,07,02,16,48,31.20
2015,07,02,16,49,31.20
2015,07,02,16,50,31.20
2015,07,02,16,51,31.20
2015,07,02,16,52,31.10
2015,07,02,16,53,31.00
2015,07,02,16,54,30.90
2015,07,02,16,55,30.90
2015,07,02,16,56,30.90
2015,07,02,16,57,30.90
2015,07,02,16,58,31.00
2015,07,02,16,59,31.10
2015,07,02,17,00,31.10
2015,07,02,17,01,31.10
2015,07,02,17,02,31.10
2015,07,02,17,03,31.20
2015,07,02,17,04,31.20
2015,07,02,17,05,31.30
2015,07,02,17,06,31.30
2015,07,02,17,07,31.30
2015,07,02,17,08,31.30
2015,07,02,17,09,31.30
2015,07,02,17,10,31.30
2015,07,02,17,11,31.40
2015,07,02,17,12,31.40
2015,07,02,17,13,31.50
2015,07,02,17,14,31.60
2015,07,02,17,15,31.70
2015,07,02,17,16,31.80
2015,07,02,17,17,31.80
2015,07,02,17,18,31.90
2015,07,02,17,19,31.90
2015,07,02,17,20,31.90
2015,07,02,17,21,31.90